Rockwall, TX

9:52 AM CST on December 14, 2019 (GMT -0600)
Rockwall

Weather History for KF46 - September, 2019

Change the Weather History Date:

Wednesday, September 18, 2019

  Actual Average (KDFW) Record (KDFW)
Temperature  
Mean Temperature 82 °F -  
Max Temperature 93 °F 86 °F 100 °F (1975)
Min Temperature 72 °F 66 °F 47 °F (1981)
Cooling Degree Days 18    
Growing Degree Days 32 (Base 50)    
Moisture  
Dew Point 71 °F    
Average Humidity 77    
Maximum Humidity 97    
Minimum Humidity 48    
Precipitation  
Precipitation 0.00 in - - ()
Sea Level Pressure  
Sea Level Pressure 29.92 in    
Wind  
Wind Speed 4 mph ()    
Max Wind Speed 12 mph    
Max Gust Speed 17 mph    
Visibility 10.0 miles    
Events Rain    
Averages and records for this station are not official NWS values.
T = Trace of Precipitation, MM = Missing Value Source: Averaged Metar Reports

Daily Weather History Graph

Daily Weather History Graph

Search for Another Location

Airport or City:

Astronomy

Sep. 18, 2019 Rise Set
Actual Time 7:11 AM CDT 7:28 PM CDT
Civil Twilight 6:46 AM CDT 7:52 PM CDT
Nautical Twilight 6:17 AM CDT 8:21 PM CDT
Astronomical Twilight 5:48 AM CDT 8:50 PM CDT
Moon 10:15 PM CDT (9/18) 11:03 AM CDT (9/18)
Length of Visible Light 13h 06m
Length of Day
12h 16m
Waning Gibbous, 82% of the Moon is Illuminated
Sep 18
Waning Gibbous
Sep 21
Last Quarter
Sep 28
New
Oct 5
First Quarter
Oct 13
Full

Hourly Weather History & Observations

Time (CDT) Temp. Heat Index Dew Point Humidity Pressure Visibility Wind Dir Wind Speed Gust Speed Precip Events Conditions
12:15 AM 77.9 °F - 68.9 °F 74% 29.93 in 10.0 mi SE 3.5 mph - N/A   Clear
12:35 AM 77.2 °F - 68.9 °F 76% 29.93 in 10.0 mi Calm Calm - N/A   Clear
12:55 AM 75.6 °F - 68.9 °F 80% 29.93 in 10.0 mi East 3.5 mph - N/A   Clear
1:15 AM 76.1 °F - 69.1 °F 79% 29.94 in 10.0 mi Calm Calm - N/A   Clear
1:35 AM 76.1 °F - 69.1 °F 79% 29.94 in 10.0 mi Calm Calm - N/A   Clear
1:55 AM 75.2 °F - 69.8 °F 83% 29.93 in 10.0 mi Calm Calm - N/A   Clear
2:15 AM 74.3 °F - 70.0 °F 86% 29.93 in 10.0 mi Calm Calm - N/A   Clear
2:35 AM 74.8 °F - 69.3 °F 83% 29.93 in 10.0 mi Calm Calm - N/A   Clear
2:55 AM 73.4 °F - 70.0 °F 89% 29.93 in 10.0 mi Calm Calm - N/A   Clear
3:15 AM 73.0 °F - 70.5 °F 92% 29.92 in 10.0 mi East 3.5 mph - N/A   Clear
3:35 AM 73.6 °F - 69.8 °F 88% 29.92 in 10.0 mi ESE 4.6 mph - N/A   Clear
3:55 AM 74.3 °F - 69.3 °F 84% 29.92 in 10.0 mi ESE 5.8 mph - N/A   Clear
4:15 AM 74.3 °F - 69.3 °F 84% 29.92 in 10.0 mi ESE 4.6 mph - N/A   Clear
4:35 AM 73.6 °F - 69.8 °F 88% 29.92 in 10.0 mi East 3.5 mph - N/A   Clear
4:55 AM 73.6 °F - 69.8 °F 88% 29.92 in 10.0 mi ESE 3.5 mph - N/A   Clear
5:15 AM 73.2 °F - 70.0 °F 90% 29.92 in 10.0 mi ESE 5.8 mph - N/A   Clear
5:35 AM 73.4 °F - 69.8 °F 88% 29.92 in 10.0 mi East 4.6 mph - N/A   Clear
5:55 AM 73.0 °F - 70.3 °F 91% 29.93 in 10.0 mi East 3.5 mph - N/A   Clear
6:15 AM 72.7 °F - 71.2 °F 95% 29.93 in 10.0 mi East 3.5 mph - N/A   Clear
6:35 AM 72.7 °F - 71.2 °F 95% 29.94 in 10.0 mi East 4.6 mph - N/A   Clear
6:55 AM 73.0 °F - 71.6 °F 95% 29.94 in 10.0 mi East 4.6 mph - N/A   Clear
7:15 AM 72.9 °F - 71.8 °F 96% 29.95 in 10.0 mi East 3.5 mph - N/A   Clear
7:35 AM 72.9 °F - 72.0 °F 97% 29.95 in 10.0 mi East 3.5 mph - N/A   Clear
7:55 AM 74.1 °F - 72.0 °F 93% 29.96 in 10.0 mi East 3.5 mph - N/A   Clear
8:15 AM 75.4 °F - 72.3 °F 90% 29.96 in 10.0 mi East 4.6 mph - N/A   Clear
8:35 AM 76.8 °F - 72.5 °F 86% 29.96 in 10.0 mi East 5.8 mph - N/A   Clear
8:55 AM 77.4 °F - 72.1 °F 84% 29.97 in 10.0 mi East 9.2 mph - N/A   Clear
9:15 AM 76.1 °F - 72.1 °F 87% 29.97 in 10.0 mi East 10.4 mph - N/A   Mostly Cloudy
9:35 AM 76.8 °F - 72.1 °F 85% 29.97 in 10.0 mi East 6.9 mph - N/A   Overcast
9:55 AM 77.5 °F - 72.1 °F 83% 29.97 in 10.0 mi East 6.9 mph - N/A   Overcast
10:15 AM 80.2 °F 84.6 °F 73.0 °F 79% 29.97 in 10.0 mi ENE 5.8 mph - N/A   Overcast
10:35 AM 80.4 °F 84.7 °F 72.7 °F 77% 29.97 in 10.0 mi East 5.8 mph - N/A   Overcast
10:55 AM 81.3 °F 86.1 °F 72.9 °F 75% 29.97 in 10.0 mi ENE 6.9 mph - N/A   Overcast
11:15 AM 83.7 °F 90.1 °F 73.2 °F 71% 29.97 in 10.0 mi ENE 6.9 mph - N/A   Overcast
11:35 AM 84.7 °F 91.4 °F 73.0 °F 68% 29.97 in 10.0 mi NE 4.6 mph - N/A   Mostly Cloudy
11:55 AM 85.3 °F 92.2 °F 73.2 °F 67% 29.97 in 10.0 mi NE 4.6 mph - N/A   Overcast
12:15 PM 85.5 °F 92.2 °F 73.0 °F 66% 29.96 in 10.0 mi NE 4.6 mph - N/A   Mostly Cloudy
12:35 PM 85.3 °F 91.8 °F 72.9 °F 66% 29.96 in 10.0 mi Calm Calm - N/A   Overcast
12:55 PM 87.3 °F 94.0 °F 72.1 °F 61% 29.94 in 10.0 mi East 4.6 mph - N/A   Overcast
1:15 PM 87.1 °F 93.2 °F 71.6 °F 60% 29.94 in 10.0 mi East 4.6 mph - N/A   Overcast
1:35 PM 86.4 °F 92.2 °F 71.2 °F 61% 29.93 in 10.0 mi East 8.1 mph - N/A   Overcast
1:55 PM 87.8 °F 93.8 °F 71.4 °F 58% 29.92 in 10.0 mi East 8.1 mph - N/A   Overcast
2:15 PM 89.1 °F 95.0 °F 70.9 °F 55% 29.91 in 10.0 mi ESE 8.1 mph - N/A   Mostly Cloudy
2:35 PM 88.5 °F 94.0 °F 70.7 °F 55% 29.90 in 10.0 mi East 11.5 mph - N/A   Mostly Cloudy
2:55 PM 89.4 °F 95.3 °F 70.5 °F 54% 29.89 in 10.0 mi East 8.1 mph - N/A   Mostly Cloudy
3:15 PM 89.8 °F 96.0 °F 71.2 °F 54% 29.89 in 10.0 mi East 8.1 mph - N/A   Mostly Cloudy
3:35 PM 90.5 °F 97.0 °F 71.1 °F 53% 29.89 in 10.0 mi East 6.9 mph - N/A   Mostly Cloudy
3:55 PM 90.9 °F 97.3 °F 71.1 °F 52% 29.88 in 10.0 mi East 6.9 mph - N/A   Mostly Cloudy
4:15 PM 92.3 °F 99.2 °F 71.1 °F 50% 29.87 in 10.0 mi ESE 5.8 mph - N/A   Mostly Cloudy
4:35 PM 93.0 °F 99.5 °F 70.7 °F 48% 29.87 in 10.0 mi ENE 4.6 mph - N/A   Mostly Cloudy
4:55 PM 90.3 °F 96.2 °F 70.7 °F 52% 29.87 in 10.0 mi ENE 8.1 mph - N/A   Overcast
5:15 PM 91.8 °F 98.6 °F 71.2 °F 51% 29.86 in 10.0 mi NNE 9.2 mph - N/A   Mostly Cloudy
5:35 PM 91.8 °F 98.6 °F 71.2 °F 51% 29.87 in 10.0 mi ENE 10.4 mph - N/A   Mostly Cloudy
5:55 PM 82.6 °F 87.8 °F 72.5 °F 71% 29.88 in 7.0 mi NNE 3.5 mph - N/A Rain Light Rain
6:15 PM 81.9 °F 86.8 °F 72.5 °F 73% 29.88 in 10.0 mi ESE 10.4 mph 17.3 mph N/A   Mostly Cloudy
6:35 PM 81.5 °F 86.3 °F 72.5 °F 74% 29.89 in 10.0 mi ESE 6.9 mph - N/A   Mostly Cloudy
6:55 PM 81.5 °F 86.3 °F 72.7 °F 74% 29.89 in 10.0 mi East 8.1 mph - N/A   Overcast
7:15 PM 80.4 °F 85.0 °F 73.2 °F 79% 29.89 in 10.0 mi ENE 3.5 mph - N/A   Scattered Clouds
7:55 PM 78.8 °F - 73.4 °F 83% 29.89 in 10.0 mi East 8.1 mph - N/A   Clear
8:15 PM 78.4 °F - 72.9 °F 83% 29.89 in 10.0 mi East 6.9 mph - N/A   Clear
8:35 PM 78.4 °F - 71.8 °F 80% 29.90 in 10.0 mi East 10.4 mph - N/A   Clear
8:55 PM 78.1 °F - 71.6 °F 80% 29.90 in 10.0 mi East 6.9 mph - N/A   Clear
9:15 PM 77.9 °F - 71.6 °F 81% 29.91 in 10.0 mi East 6.9 mph - N/A   Clear
9:35 PM 77.4 °F - 71.6 °F 82% 29.91 in 10.0 mi East 6.9 mph - N/A   Clear
9:55 PM 77.0 °F - 71.6 °F 83% 29.91 in 10.0 mi East 5.8 mph - N/A   Clear
10:15 PM 76.6 °F - 71.8 °F 85% 29.91 in 10.0 mi East 5.8 mph - N/A   Clear
10:35 PM 76.3 °F - 72.0 °F 86% 29.91 in 10.0 mi East 5.8 mph - N/A   Clear
10:55 PM 76.1 °F - 72.1 °F 87% 29.92 in 10.0 mi ENE 4.6 mph - N/A   Clear
11:15 PM 75.4 °F - 72.9 °F 92% 29.92 in 10.0 mi East 4.6 mph - N/A   Clear
11:35 PM 75.2 °F - 73.4 °F 94% 29.92 in 10.0 mi North - - N/A   Clear
11:55 PM 75.2 °F - 73.4 °F 94% 29.92 in 10.0 mi East 4.6 mph - N/A   Clear